When you browse on this site, cookies collect data to enhance your experience and personalize the content and advertising you see.
Visit our Privacy Policy to learn more. By continuing to use the site, you agree to this use of cookies and data.
  • In Austria
  • List of Countries
  • For 7 days
  • Water Temperature
  • Weather Map
  • News
  • Weather Widgets
  • user-avatar
    Login

    Hourly Weather Hlushka

    Today, 22 September, Sunday

    Time Temperature Precipitation Wind Pressure Humidity
    00:00 +9°C° 0 mm 2 mps 740 mmHg 92%
    01:00 +9°C° 0 mm 2 mps 740 mmHg 94%
    02:00 +8°C° 0 mm 1 mps 739 mmHg 79%
    03:00 +5°C° 0 mm 3 mps 739 mmHg 88%
    04:00 +6°C° 0 mm 2 mps 739 mmHg 91%
    05:00 +6°C° 0 mm 2 mps 739 mmHg 91%
    06:00 +6°C° 0 mm 2 mps 739 mmHg 89%
    07:00 +7°C° 0 mm 1 mps 739 mmHg 88%
    08:00 +9°C° 0 mm 1 mps 739 mmHg 83%
    09:00 +12°C° 0 mm 2 mps 739 mmHg 75%
    10:00 +14°C° 0 mm 3 mps 739 mmHg 69%
    11:00 +16°C° 0 mm 3 mps 739 mmHg 63%
    12:00 +18°C° 0 mm 3 mps 739 mmHg 57%
    13:00 +19°C° 0 mm 3 mps 739 mmHg 57%
    14:00 +19°C° 0 mm 3 mps 739 mmHg 56%
    15:00 +20°C° 0 mm 3 mps 738 mmHg 57%
    16:00 +20°C° 0 mm 2 mps 738 mmHg 61%
    17:00 +19°C° 0 mm 2 mps 738 mmHg 65%
    18:00 +19°C° 0 mm 1 mps 737 mmHg 72%
    19:00 +19°C° 0 mm 1 mps 737 mmHg 72%
    20:00 +18°C° 0 mm 1 mps 737 mmHg 74%
    21:00 +18°C° 0 mm 1 mps 737 mmHg 75%
    22:00 +16°C° 0 mm 1 mps 737 mmHg 77%
    23:00 +14°C° 0 mm 0 mps 737 mmHg 79%

    Tomorrow, 23 September, Monday

    Time Temperature Precipitation Wind Pressure Humidity
    00:00 +14°C° 0 mm 0 mps 737 mmHg 81%
    01:00 +14°C° 0 mm 1 mps 737 mmHg 84%
    02:00 +14°C° 0 mm 1 mps 736 mmHg 87%
    03:00 +13°C° 0 mm 1 mps 736 mmHg 88%
    04:00 +13°C° 0 mm 1 mps 736 mmHg 88%
    05:00 +12°C° 0 mm 1 mps 736 mmHg 88%
    06:00 +11°C° 0 mm 0 mps 736 mmHg 88%
    07:00 +12°C° 0 mm 1 mps 736 mmHg 89%
    08:00 +12°C° 0 mm 1 mps 736 mmHg 90%
    09:00 +14°C° 0 mm 1 mps 736 mmHg 93%
    10:00 +15°C° 0 mm 1 mps 737 mmHg 88%
    11:00 +16°C° 0 mm 1 mps 737 mmHg 85%
    12:00 +18°C° 0 mm 2 mps 737 mmHg 81%
    13:00 +19°C° 0 mm 1 mps 736 mmHg 80%
    14:00 +19°C° 0 mm 2 mps 736 mmHg 78%
    15:00 +19°C° 0 mm 2 mps 736 mmHg 77%
    16:00 +19°C° 0 mm 2 mps 736 mmHg 76%
    17:00 +19°C° 0 mm 2 mps 735 mmHg 77%
    18:00 +18°C° 0 mm 2 mps 735 mmHg 83%
    19:00 +17°C° 0 mm 2 mps 736 mmHg 88%
    20:00 +14°C° 0 mm 3 mps 736 mmHg 98%
    21:00 +14°C° 0 mm 3 mps 736 mmHg 100%
    22:00 +14°C° 0 mm 3 mps 736 mmHg 100%
    23:00 +13°C° 0 mm 3 mps 736 mmHg 100%

    Day after tomorrow, 24 September, Tuesday

    Time Temperature Precipitation Wind Pressure Humidity
    00:00 +13°C° 0 mm 4 mps 736 mmHg 100%
    01:00 +12°C° 0 mm 4 mps 736 mmHg 100%
    02:00 +12°C° 0 mm 3 mps 736 mmHg 99%
    03:00 +12°C° 0 mm 3 mps 736 mmHg 99%
    04:00 +12°C° 0 mm 3 mps 736 mmHg 99%
    05:00 +12°C° 0 mm 3 mps 736 mmHg 99%
    06:00 +11°C° 0 mm 3 mps 736 mmHg 99%
    07:00 +11°C° 0 mm 3 mps 736 mmHg 99%
    08:00 +12°C° 0 mm 2 mps 736 mmHg 99%
    09:00 +11°C° 0 mm 3 mps 736 mmHg 98%
    10:00 +11°C° 0 mm 3 mps 737 mmHg 98%
    11:00 +12°C° 0 mm 2 mps 737 mmHg 98%
    12:00 +13°C° 0 mm 2 mps 737 mmHg 98%
    13:00 +13°C° 0 mm 1 mps 736 mmHg 97%
    14:00 +14°C° 0 mm 1 mps 736 mmHg 97%
    15:00 +14°C° 0 mm 2 mps 736 mmHg 96%
    16:00 +13°C° 0 mm 3 mps 735 mmHg 96%
    17:00 +14°C° 0 mm 2 mps 735 mmHg 96%
    18:00 +13°C° 0 mm 2 mps 735 mmHg 97%
    19:00 +13°C° 0 mm 1 mps 735 mmHg 98%
    20:00 +12°C° 0 mm 1 mps 735 mmHg 100%
    21:00 +12°C° 0 mm 1 mps 735 mmHg 100%
    22:00 +11°C° 0 mm 1 mps 735 mmHg 100%
    23:00 +11°C° 0 mm 1 mps 735 mmHg 100%

    25 September, Wednesday

    Time Temperature Precipitation Wind Pressure Humidity
    00:00 +11°C° 0 mm 1 mps 735 mmHg 100%
    01:00 +11°C° 0 mm 1 mps 735 mmHg 100%
    02:00 +10°C° 0 mm 2 mps 735 mmHg 100%
    03:00 +10°C° 0 mm 2 mps 735 mmHg 100%
    04:00 +11°C° 0 mm 3 mps 735 mmHg 100%
    05:00 +11°C° 0 mm 4 mps 734 mmHg 100%
    06:00 +11°C° 0 mm 4 mps 734 mmHg 100%
    07:00 +11°C° 0 mm 4 mps 734 mmHg 100%
    08:00 +11°C° 0 mm 4 mps 734 mmHg 100%
    09:00 +10°C° 0 mm 5 mps 734 mmHg 100%
    10:00 +13°C° 0 mm 5 mps 734 mmHg 98%
    11:00 +13°C° 0 mm 5 mps 734 mmHg 98%
    12:00 +14°C° 0 mm 6 mps 734 mmHg 98%
    13:00 +15°C° 0 mm 6 mps 734 mmHg 97%
    14:00 +15°C° 0 mm 6 mps 733 mmHg 97%
    15:00 +14°C° 0 mm 6 mps 733 mmHg 97%
    16:00 +14°C° 0 mm 6 mps 733 mmHg 97%
    17:00 +14°C° 0 mm 5 mps 733 mmHg 97%
    18:00 +13°C° 0 mm 4 mps 733 mmHg 98%
    19:00 +13°C° 0 mm 4 mps 732 mmHg 100%
    20:00 +13°C° 0.8 mm 5 mps 732 mmHg 100%
    21:00 +13°C° 1 mm 5 mps 732 mmHg 100%
    22:00 +13°C° 0.3 mm 5 mps 732 mmHg 100%
    23:00 +13°C° 0 mm 5 mps 732 mmHg 100%

    26 September, Thursday

    Time Temperature Precipitation Wind Pressure Humidity
    00:00 +13°C° 0 mm 5 mps 732 mmHg 100%
    01:00 +13°C° 0 mm 4 mps 731 mmHg 100%
    02:00 +13°C° 0 mm 4 mps 731 mmHg 100%

    27 September, Friday

    Time Temperature Precipitation Wind Pressure Humidity
    Show more